This is the latest recevied weather packets stored in our database for station/object WX5HOT. If no packets are shown the sender has not sent any weather packets the latest 10 day(s).
| Time | Temp. | Humidity | Pressure | Rain* | Wind** | Luminosity | Snow |
|---|---|---|---|---|---|---|---|
| 1777928451 | 21.11° C | 53% | 1060.9 hPa | 0 mm | - | 539 W/m² | - |
| 1777928149 | 21.11° C | 55% | 1060.9 hPa | 0 mm | - | 421 W/m² | - |
| 1777927847 | 21.11° C | 53% | 1061.1 hPa | 0 mm | - | 467 W/m² | - |
| 1777927544 | 21.11° C | 53% | 1060.9 hPa | 0 mm | - | 511 W/m² | - |
| 1777927243 | 21.67° C | 52% | 1061.3 hPa | 0 mm | - | 525 W/m² | - |
| 1777926941 | 21.67° C | 54% | 1061.4 hPa | 0 mm | - | 549 W/m² | - |
| 1777926638 | 21.67° C | 52% | 1061.5 hPa | 0 mm | - | 380 W/m² | - |
| 1777926333 | 21.67° C | 52% | 1061.3 hPa | 0 mm | - | 277 W/m² | - |
| 1777926031 | 21.67° C | 52% | 1061.3 hPa | 0 mm | - | 287 W/m² | - |
| 1777925727 | 21.11° C | 54% | 1061.7 hPa | 0 mm | - | 650 W/m² | - |
| 1777925425 | 20.56° C | 55% | 1062 hPa | 0 mm | - | 712 W/m² | - |
| 1777925121 | 21.11° C | 53% | 1061.7 hPa | 0 mm | - | 279 W/m² | - |
| 1777924819 | 21.67° C | 51% | 1062 hPa | 0 mm | - | 818 W/m² | - |
| 1777924514 | 21.67° C | 55% | 1062.2 hPa | 0 mm | - | 829 W/m² | - |
| 1777924211 | 20.56° C | 54% | 1062.1 hPa | 0 mm | - | 429 W/m² | - |
| 1777923908 | 20.56° C | 56% | 1062.1 hPa | 0 mm | - | 845 W/m² | - |
| 1777923603 | 21.11° C | 55% | 1062.3 hPa | 0 mm | - | 265 W/m² | - |
| 1777923300 | 20.56° C | 55% | 1062.3 hPa | 0 mm | - | 909 W/m² | - |
| 1777922999 | 20.56° C | 55% | 1062.3 hPa | 0 mm | - | 316 W/m² | - |
| 1777922696 | 20.56° C | 54% | 1062.5 hPa | 0 mm | - | 320 W/m² | - |
| 1777922395 | 20.56° C | 54% | 1062.6 hPa | 0 mm | - | 400 W/m² | - |
| 1777922092 | 20.56° C | 55% | 1062.7 hPa | 0 mm | - | 480 W/m² | - |
| 1777921787 | 20° C | 55% | 1062.4 hPa | 0 mm | - | 302 W/m² | - |
| 1777921483 | 20.56° C | 55% | 1062.5 hPa | 0 mm | - | 282 W/m² | - |
| 1777921180 | 20.56° C | 54% | 1062.3 hPa | 0 mm | - | 230 W/m² | - |
* Rain latest hour (hover to see other rain measurements)
** Current wind speed in m/s (hover to see current wind gust speed)